| time (UTC) | temp C | wind direction | speed KPH | gust KPH | rain 1hr cm | rain 24hr cm | rain mn cm | humidity % | barometer mb |
| 20260504081529 | 2 | 222 | 33.8 | 66.0 | 0.00 | 1.35 | 0.23 | 92 | 981.0 |
| 20260504050107 | 3 | 200 | 19.3 | 46.7 | 0.05 | 1.22 | 0.13 | 93 | 974.9 |
| 20260504044601 | 3 | 204 | 16.1 | 33.8 | 0.05 | 1.22 | 0.13 | 92 | 974.5 |
| 20260504043055 | 3 | 177 | 14.5 | 25.7 | 0.05 | 1.22 | 0.13 | 92 | 974.1 |
| 20260504041555 | 3 | 186 | 12.9 | 30.6 | 0.05 | 1.19 | 0.10 | 92 | 974.0 |
| 20260504040052 | 3 | 147 | 14.5 | 29.0 | 0.08 | 1.17 | 0.08 | 92 | 974.2 |
| 20260504034546 | 3 | 173 | 14.5 | 35.4 | 0.10 | 1.17 | 0.08 | 92 | 974.8 |
| 20260504033042 | 3 | 137 | 14.5 | 41.8 | 0.08 | 1.17 | 0.05 | 92 | 975.6 |
| 20260504031544 | 3 | 134 | 16.1 | 30.6 | 0.05 | 1.14 | 0.05 | 92 | 976.4 |
| 20260504030035 | 3 | 99 | 17.7 | 30.6 | 0.03 | 1.09 | 0.00 | 92 | 977.2 |
| 20260504024531 | 3 | 144 | 17.7 | 29.0 | 0.00 | 1.09 | 1.09 | 92 | 978.1 |
| 20260504023030 | 3 | 114 | 12.9 | 33.8 | 0.00 | 1.09 | 1.09 | 92 | 978.9 |
| 20260504021527 | 4 | 139 | 16.1 | 33.8 | 0.00 | 1.09 | 1.09 | 92 | 979.7 |
| 20260504020024 | 4 | 156 | 9.7 | 27.4 | 0.03 | 1.09 | 1.09 | 92 | 980.5 |
| 20260504014520 | 5 | 147 | 14.5 | 25.7 | 0.03 | 1.09 | 1.09 | 92 | 981.7 |
| 20260504013021 | 5 | 124 | 11.3 | 29.0 | 0.05 | 1.09 | 1.09 | 92 | 982.5 |
| 20260504011514 | 5 | 153 | 14.5 | 29.0 | 0.05 | 1.09 | 1.09 | 92 | 983.2 |
| 20260504010011 | 5 | 169 | 11.3 | 29.0 | 0.05 | 1.07 | 1.07 | 92 | 983.8 |
| 20260504004511 | 5 | 90 | 11.3 | 37.0 | 0.05 | 1.07 | 1.07 | 92 | 983.9 |
| 20260504003010 | 4 | 112 | 14.5 | 41.8 | 0.05 | 1.04 | 1.04 | 92 | 984.3 |
| 20260504001508 | 4 | 105 | 16.1 | 45.1 | 0.05 | 1.02 | 1.02 | 92 | 984.7 |
| 20260504000021 | 4 | 85 | 20.9 | 49.9 | 0.10 | 1.02 | 1.02 | 92 | 984.6 |
| 20260503234505 | 4 | 134 | 20.9 | 54.7 | 0.15 | 0.99 | 0.99 | 91 | 985.1 |
| 20260503233007 | 4 | 95 | 29.0 | 54.7 | 0.18 | 0.99 | 0.99 | 92 | 986.5 |
| 20260503231501 | 4 | 66 | 32.2 | 62.8 | 0.33 | 0.99 | 0.99 | 92 | 986.4 |
| 20260503230058 | 3 | 101 | 20.9 | 51.5 | 0.33 | 0.94 | 0.94 | 92 | 987.7 |
| 20260503224556 | 3 | 69 | 22.5 | 62.8 | 0.33 | 0.86 | 0.86 | 91 | 989.0 |
| 20260503223053 | 3 | 128 | 19.3 | 41.8 | 0.36 | 0.81 | 0.81 | 91 | 989.7 |
| 20260503221554 | 3 | 99 | 19.3 | 43.5 | 0.23 | 0.66 | 0.66 | 91 | 991.5 |
| 20260503220046 | 3 | 107 | 9.7 | 35.4 | 0.20 | 0.61 | 0.61 | 91 | 992.9 |
| 20260503214545 | 3 | 85 | 14.5 | 38.6 | 0.23 | 0.51 | 0.51 | 91 | 993.8 |
| 20260503213044 | 3 | 111 | 9.7 | 29.0 | 0.25 | 0.46 | 0.46 | 91 | 993.7 |
| 20260503211539 | 3 | 47 | 12.9 | 33.8 | 0.25 | 0.43 | 0.43 | 91 | 994.8 |
| 20260503210036 | 3 | 95 | 8.0 | 29.0 | 0.28 | 0.41 | 0.41 | 90 | 995.7 |
| 20260503204535 | 3 | 85 | 16.1 | 32.2 | 0.20 | 0.28 | 0.28 | 90 | 995.5 |
| 20260503203041 | 3 | 85 | 12.9 | 40.2 | 0.15 | 0.20 | 0.20 | 90 | 997.1 |
| 20260503201535 | 3 | 85 | 12.9 | 37.0 | 0.08 | 0.15 | 0.15 | 90 | 996.9 |
| 20260503200029 | 4 | 59 | 11.3 | 30.6 | 0.10 | 0.13 | 0.13 | 90 | 997.7 |
| 20260503194527 | 4 | 112 | 16.1 | 40.2 | 0.05 | 0.08 | 0.08 | 89 | 998.8 |
| 20260503193026 | 5 | 76 | 11.3 | 24.1 | 0.05 | 0.05 | 0.05 | 89 | 999.4 |
| 20260503191523 | 5 | 14 | 4.8 | 25.7 | 0.05 | 0.05 | 0.05 | 89 | 1000.4 |
| 20260503190021 | 6 | 77 | 6.4 | 24.1 | 0.00 | 0.03 | 0.03 | 88 | 1000.9 |
| 20260503184522 | 6 | 90 | 9.7 | 25.7 | 0.03 | 0.03 | 0.03 | 88 | 1001.1 |
| 20260503183015 | 6 | 90 | 9.7 | 25.7 | 0.03 | 0.03 | 0.03 | 88 | 1002.7 |
| 20260503181516 | 6 | 55 | 11.3 | 24.1 | 0.03 | 0.03 | 0.03 | 87 | 1003.6 |
| 20260503180021 | 6 | 45 | 11.3 | 22.5 | 0.03 | 0.03 | 0.03 | 84 | 1004.6 |
| 20260503174513 | 6 | 32 | 9.7 | 17.7 | 0.00 | 0.00 | 0.00 | 82 | 1005.4 |
| 20260503173010 | 6 | 30 | 9.7 | 22.5 | 0.00 | 0.00 | 0.00 | 80 | 1005.8 |
| 20260503171603 | 7 | 55 | 6.4 | 17.7 | 0.00 | 0.00 | 0.00 | 80 | 1007.5 |